Regional Weather Roundup
Issued by NWS Goodland, KS

Home | Current Version | Previous Version | Graphics & Text | Print | Product List | Glossary On
Versions: 1 2 3 4 5 6 7 8 9 10 11 12 13 14 15 16 17 18 19 20 21 22 23 24 25 26 27 28 29 30 31 32 33 34 35 36 37 38 39 40 41 42 43 44 45 46 47 48 49 50
000
ASUS43 KGLD 082008
RWRGLD

GOODLAND FORECAST AREA HOURLY WEATHER ROUNDUP
NATIONAL WEATHER SERVICE GOODLAND KS
100 PM MST MON FEB 08 2016

...OFFICIAL OBSERVATIONS...

CITY           SKY/WX    TMP DP  RH WIND       PRES   REMARKS
GOODLAND KS    CLOUDY    37  16  42 N26G36    30.31F
HILL CITY KS   CLOUDY    37  16  42 NW26G38   30.29F
IMPERIAL NEB   CLOUDY    36  16  44 NW20      30.29F
MCCOOK NEB     CLOUDY    37  17  44 NW26      30.28F
AKRON CO       CLOUDY    35  25  66 NW16      30.32F
BURLINGTON CO  SUNNY     36  19  50 N15       30.31F
LIMON CO       SUNNY     36  23  59 N9        30.34F
$$

...UNOFFICIAL OBSERVATIONS...

CITY           SKY/WX    TMP DP  RH WIND       PRES   REMARKS
COLBY KS       SUNNY     36  23  60 NW23G29   30.30F
GOVE KS          N/A     38  32  79 MISG        N/A
LENORA KS        N/A     34  32  92 MISG        N/A
NORTON KS      SUNNY     36  18  48 NW25G33   30.25F
KIT CARSON CO    N/A     36  21  54 MISG        N/A
YUMA CO          N/A     37  25  63 NW15        N/A
$$



USA.gov is the U.S. government's official web portal to all federal, state and local government web resources and services.